[[{"header":{"parameterUnit":"m.s-1","parameterCategory":1,"la1":30.2991,"la2":30.254,"lo1":-89.0895,"lo2":-89.0444,"dy":0.0017,"dx":0.0017,"nx":28,"ny":28,"refTime":"2024-10-17T03:00:00:Z","depth":0,"parameterNumber":2,"parameterNumberName":"U-component_of_WINDS"},"data":[0,0,0,0,0,0,0,0,0,0,0,0,0,0,0,0,0,0,0,0,0,0,0,0,0,0,0,0,0,0,0,0,0,0,0,0,0,0,0,0,0,0,0,0,0,0,0,0,0,0,0,0,0,0,0,0,0,0,-5.7913,-5.7914,0,-5.7964,-5.7964,-5.7965,-5.7762,-5.7756,-5.7751,-5.7745,-5.7798,-5.7805,-5.7812,0,0,0,0,0,0,0,0,0,0,0,0,0,-5.7642,-5.7649,-5.7913,-5.7914,-5.7915,-5.7964,-5.7964,-5.7965,-5.7764,-5.7756,-5.7749,-5.7742,-5.7796,-5.7804,-5.7813,0,0,0,0,0,0,0,0,0,0,0,0,0,-5.7733,-5.7651,-5.7913,-5.782,-5.7812,-5.7963,-5.7964,-5.7965,-5.7765,-5.7756,-5.7747,-5.7739,-5.7793,-5.7803,-5.7814,-5.8058,0,0,-5.7846,-5.785,0,0,0,0,0,0,0,0,-5.7729,-5.7744,-5.7833,-5.7827,-5.7818,-5.7847,-5.7888,-5.7996,-5.7767,-5.7783,-5.7745,-5.7734,-5.7822,-5.783,-5.7859,-5.806,-5.8063,-5.7847,-5.7853,-5.7858,-5.7861,0,0,0,0,0,0,0,-5.7722,-5.774,-5.7933,-5.7835,-5.7826,-5.7775,-5.7778,-5.7908,-5.7852,-5.7781,-5.7766,-5.7775,-5.7816,-5.7849,-5.7859,-5.8063,-5.7846,-5.7856,-5.7862,-5.7866,-5.8465,-5.8474,0,0,0,0,0,0,-5.7728,-5.7736,-5.7931,-5.7935,-5.775,-5.7788,-5.7791,-5.7847,-5.785,-5.7842,-5.7783,-5.7765,-5.7836,-5.7847,-5.786,-5.8142,-5.7858,-5.7867,-5.7873,-5.8455,-5.8467,-5.8477,0,0,0,0,0,0,-5.7723,-5.7748,-5.7929,-5.7832,-5.7851,-5.7802,-5.7867,-5.7853,-5.7885,-5.7851,-5.7841,-5.7826,-5.7829,-5.7845,-5.8009,-5.8142,-5.7872,-5.7882,-5.8444,-5.8459,-5.8472,-5.8713,0,0,0,0,0,0,-5.7716,-5.7747,-5.784,-5.7835,-5.7857,-5.8079,-5.7875,-5.786,-5.7904,-5.7882,-5.789,-5.7882,-5.7823,-5.7995,-5.802,-5.8151,-5.789,-5.8432,-5.845,-5.8467,-5.8693,-5.8734,-5.8769,0,0,0,0,0,-5.7708,-5.7906,-5.7845,-5.787,-5.7971,-5.8087,-5.8099,-5.8027,-5.7916,-5.8007,-5.7985,-5.7882,-5.8124,-5.8013,-5.804,-5.8177,-5.8423,-5.8445,-5.8466,-5.8676,-5.8726,-5.8768,0,0,0,0,0,0,-5.7928,-5.7904,-5.7836,-5.8039,-5.8067,-5.8053,-5.8166,-5.8082,-5.8142,-5.8119,-5.8027,-5.8031,-5.8211,-5.821,-5.8087,-5.8411,-5.8254,-5.8282,-5.8405,-5.8452,-5.8489,-5.8484,-5.7899,0,0,0,0,0,-5.8001,-5.8097,-5.807,-5.8252,-5.8269,-5.8217,-5.8264,-5.8206,-5.823,-5.8241,-5.8231,-5.8259,-5.834,-5.8397,-5.847,-5.8693,-5.869,-5.88,-5.8838,-5.8869,-5.8894,-5.9008,-5.9056,-5.8548,-5.8548,-5.8548,0,0,-5.8151,-5.815,-5.8216,-5.8297,-5.8311,-5.8411,-5.8227,-5.8342,-5.8415,-5.8258,-5.8411,-5.8406,-5.8431,-5.8625,-5.871,-5.863,-5.9034,-5.8897,-5.8922,-5.8929,-5.9035,-5.9084,-5.9126,-5.8563,-5.856,-5.8558,0,0,-5.8475,-5.8486,-5.8636,-5.8654,-5.8678,-5.8641,-5.8678,-5.8676,-5.8666,-5.8818,-5.8702,-5.8788,-5.8932,-5.8954,-5.8984,-5.9317,-5.9223,-5.9344,-5.9541,-5.9654,-5.9694,-5.9729,-5.9844,-5.9887,-5.9369,-5.9369,-5.937,0,-5.8659,-5.8806,-5.8725,-5.8847,-5.8885,-5.8747,-5.8898,-5.892,-5.8967,-5.8997,-5.8907,-5.9083,-5.909,-5.9286,-5.9367,-5.9397,-5.9434,-5.9341,-5.9695,-5.9729,-5.976,-5.9869,-5.9913,-5.9384,-5.9382,-5.938,-5.9379,0,-5.9029,-5.9133,-5.9252,-5.9299,-5.9351,-5.9488,-5.9427,-5.949,-5.9427,-5.94,-5.9556,-5.9561,-5.9631,-5.9674,-5.9615,-5.9861,-5.9811,-5.971,-5.9549,-5.9824,-5.9925,-5.9966,-5.9404,-5.9399,-5.9395,-5.9391,0,0,-5.9492,-5.9492,-5.9537,-5.9556,-5.9572,-5.965,-5.9781,-5.9849,-5.9903,-5.9941,-6.0046,-6.0171,-6.0076,-6.0111,-6.0053,-6.0153,-6.0412,-6.0039,-6.0038,-6.0105,-6.0681,-6.0754,-6.0804,-6.0352,-6.0359,-6.0366,-6.0677,0,-5.9807,-6.0028,-5.9959,-6.0182,-6.0275,-6.0146,-6.0259,-6.0281,-6.0259,-6.0335,-6.0311,-6.0399,-6.0271,-6.029,-6.0383,-6.0361,-6.0526,-6.0338,-6.0447,-6.0452,-6.0441,-6.0857,-6.0935,-6.1229,-6.0716,-6.0723,-6.0728,0,-6.0204,-6.0256,-6.0488,-6.0486,-6.0522,-6.0625,-6.0681,-6.0756,-6.0778,-6.0755,-6.0794,-6.0715,-6.0842,-6.0684,-6.0856,-6.073,-6.077,-6.0767,-6.0776,-6.0781,-6.0604,-6.0869,-6.1321,-6.1364,-6.079,-6.0785,-6.0781,0,-6.0514,-6.0643,-6.0797,-6.0817,-6.082,-6.0895,-6.0899,-6.0912,-6.0957,-6.1007,-6.1035,-6.11,-6.1135,-6.1187,-6.1127,-6.1018,-6.1308,-6.1145,-6.1291,-6.1292,-6.1355,-6.1351,-6.1816,-6.1388,-6.1387,-6.1386,-6.1386,0,-6.0871,-6.1018,-6.0935,-6.103,-6.119,-6.111,-6.127,-6.126,-6.1273,-6.1363,-6.1257,-6.1343,-6.1261,-6.1341,-6.1296,-6.1443,-6.1461,-6.1445,-6.143,-6.1452,-6.1454,-6.1475,-6.1452,-6.1398,-6.1395,-6.1393,-6.1391,0,-6.1243,-6.1195,-6.1354,-6.1343,-6.1344,-6.1462,-6.1452,-6.1539,-6.151,-6.1625,-6.1647,-6.1602,-6.169,-6.1636,-6.1727,-6.1696,-6.1888,-6.1848,-6.188,-6.1868,-6.2015,-6.2,-6.2506,-6.2567,-6.2105,-6.2109,-6.2113,0,-6.1472,-6.1581,-6.1582,-6.1634,-6.1646,-6.1732,-6.1777,-6.1702,-6.1753,-6.1786,-6.1869,-6.1948,-6.2006,-6.2153,-6.2128,-6.2196,-6.2153,-6.2326,-6.2163,-6.2181,-6.2152,-6.2144,-6.2153,-6.2358,-6.2364,-6.2368,-6.2372,0,-6.1883,-6.1853,-6.1922,-6.1983,-6.2039,-6.2083,-6.2118,-6.2168,-6.2093,-6.2156,-6.2244,-6.2289,-6.238,-6.2459,-6.2516,-6.252,-6.2434,-6.2424,-6.246,-6.2482,-6.2495,-6.2486,-6.1966,-6.2412,-6.2408,-6.2405,-6.2403,-6.2401,-6.2188,-6.2277,-6.2291,-6.2371,-6.239,-6.2425,-6.2505,-6.2486,-6.2558,-6.2625,-6.2577,-6.2681,-6.2699,-6.2767,-6.2782,-6.2862,-6.2792,-6.2846,-6.2859,-6.2872,-6.2891,-6.2486,-6.2873,-6.2872,-6.287,-6.2869,-6.2869,0,-6.2589,-6.2592,-6.2666,-6.2718,-6.2781,-6.2694,-6.2729,-6.2786,-6.2878,-6.2903,-6.2962,-6.3062,-6.3138,-6.312,-6.3187,-6.3255,-6.3217,-6.3275,-6.3267,-6.3269,-6.2951,-6.2911,-6.3304,-6.3304,-6.3304,-6.3304,-6.3304,-6.3304,-6.2805,-6.2951,-6.2924,-6.3078,-6.3079,-6.3179,-6.3206,-6.3237,-6.3256,-6.3372,-6.3434,-6.3421,-6.3428,-6.3495,-6.3561,-6.3553,-6.3582,-6.3654,-6.3632,-6.3335,-6.3292,-6.325,-6.3212,-6.3662,-6.3662,-6.3942,-6.3945,-6.3947]},{"header":{"parameterUnit":"m.s-1","parameterCategory":1,"la1":30.2991,"la2":30.254,"lo1":-89.0895,"lo2":-89.0444,"dy":0.0017,"dx":0.0017,"nx":28,"ny":28,"refTime":"2024-10-17T03:00:00:Z","depth":0,"parameterNumber":3,"parameterNumberName":"V-component_of_WINDS"},"data":[0,0,0,0,0,0,0,0,0,0,0,0,0,0,0,0,0,0,0,0,0,0,0,0,0,0,0,0,0,0,0,0,0,0,0,0,0,0,0,0,0,0,0,0,0,0,0,0,0,0,0,0,0,0,0,0,0,0,-1.7289,-1.7289,0,-1.7303,-1.7304,-1.7304,-1.7327,-1.7327,-1.7328,-1.7328,-1.7341,-1.7341,-1.7341,0,0,0,0,0,0,0,0,0,0,0,0,0,-1.7278,-1.7278,-1.7289,-1.7289,-1.7289,-1.7303,-1.7304,-1.7304,-1.7327,-1.7327,-1.7328,-1.7328,-1.7341,-1.7341,-1.7341,0,0,0,0,0,0,0,0,0,0,0,0,0,-1.7286,-1.7278,-1.7289,-1.7303,-1.7304,-1.7303,-1.7304,-1.7304,-1.7327,-1.7327,-1.7328,-1.7329,-1.7341,-1.7341,-1.7341,-1.7328,0,0,-1.7341,-1.7341,0,0,0,0,0,0,0,0,-1.7286,-1.7287,-1.73,-1.7302,-1.7303,-1.7314,-1.7304,-1.7312,-1.7327,-1.7318,-1.7328,-1.7329,-1.7331,-1.7332,-1.7333,-1.7328,-1.7329,-1.7341,-1.7341,-1.7341,-1.7341,0,0,0,0,0,0,0,-1.7285,-1.7286,-1.7295,-1.73,-1.7302,-1.7307,-1.7309,-1.7306,-1.7321,-1.7319,-1.732,-1.7322,-1.7332,-1.7333,-1.7334,-1.7329,-1.7341,-1.7341,-1.734,-1.734,-1.7311,-1.731,0,0,0,0,0,0,-1.7283,-1.7286,-1.7294,-1.7295,-1.7296,-1.7306,-1.7309,-1.731,-1.7321,-1.7323,-1.7321,-1.7323,-1.7333,-1.7334,-1.7334,-1.7318,-1.7341,-1.734,-1.734,-1.7312,-1.7311,-1.731,0,0,0,0,0,0,-1.7283,-1.7284,-1.7294,-1.7291,-1.7292,-1.7306,-1.7307,-1.731,-1.7311,-1.7323,-1.7326,-1.732,-1.7334,-1.7335,-1.7329,-1.7319,-1.734,-1.734,-1.7313,-1.7311,-1.731,-1.7286,0,0,0,0,0,0,-1.7282,-1.7283,-1.7279,-1.7291,-1.7293,-1.7289,-1.7307,-1.731,-1.7311,-1.7313,-1.7322,-1.7324,-1.7334,-1.7329,-1.7329,-1.7319,-1.734,-1.7313,-1.7312,-1.7311,-1.7288,-1.7284,-1.7281,0,0,0,0,0,-1.7282,-1.7272,-1.7279,-1.728,-1.7288,-1.7288,-1.7289,-1.7301,-1.731,-1.7305,-1.7313,-1.7324,-1.732,-1.7328,-1.7328,-1.7318,-1.7314,-1.7312,-1.7311,-1.7289,-1.7285,-1.7281,0,0,0,0,0,0,-1.7259,-1.7274,-1.7282,-1.7276,-1.728,-1.7292,-1.7287,-1.7296,-1.7298,-1.73,-1.7315,-1.7316,-1.7308,-1.7313,-1.7321,-1.7305,-1.7319,-1.7317,-1.7302,-1.7298,-1.7295,-1.7293,-1.734,0,0,0,0,0,-1.7253,-1.7253,-1.7266,-1.7259,-1.7261,-1.7273,-1.7274,-1.7282,-1.7288,-1.729,-1.7297,-1.7301,-1.73,-1.7299,-1.73,-1.7288,-1.729,-1.7282,-1.7278,-1.7275,-1.7274,-1.7266,-1.7262,-1.7305,-1.7305,-1.7305,0,0,-1.7242,-1.725,-1.7249,-1.7254,-1.7259,-1.7257,-1.7275,-1.7272,-1.7271,-1.7289,-1.7284,-1.7289,-1.7294,-1.7285,-1.7281,-1.7289,-1.7262,-1.7273,-1.7271,-1.7271,-1.7264,-1.7259,-1.7256,-1.7303,-1.7304,-1.7304,0,0,-1.7219,-1.7225,-1.7219,-1.7224,-1.7231,-1.7239,-1.7237,-1.7247,-1.7251,-1.7246,-1.7259,-1.7257,-1.7256,-1.7258,-1.726,-1.7235,-1.7245,-1.7235,-1.7218,-1.721,-1.7206,-1.7203,-1.7193,-1.7189,-1.7233,-1.7233,-1.7233,0,-1.7203,-1.7201,-1.7215,-1.7211,-1.7213,-1.7229,-1.7222,-1.7225,-1.7232,-1.7232,-1.724,-1.7238,-1.7243,-1.7233,-1.7227,-1.7228,-1.7226,-1.7234,-1.7206,-1.7203,-1.72,-1.7191,-1.7187,-1.7232,-1.7232,-1.7232,-1.7232,0,-1.7181,-1.7179,-1.7173,-1.7179,-1.7179,-1.7174,-1.7186,-1.7184,-1.7193,-1.7199,-1.7192,-1.7199,-1.72,-1.7198,-1.7207,-1.7189,-1.7193,-1.7204,-1.7218,-1.7195,-1.7186,-1.7182,-1.723,-1.723,-1.7231,-1.7231,0,0,-1.7145,-1.7157,-1.7154,-1.7156,-1.7164,-1.7162,-1.7157,-1.7158,-1.7156,-1.7159,-1.7154,-1.7152,-1.7161,-1.7162,-1.717,-1.7164,-1.7142,-1.7174,-1.7175,-1.7167,-1.7121,-1.7112,-1.7108,-1.7148,-1.7148,-1.7147,-1.712,0,-1.7122,-1.7114,-1.7125,-1.7114,-1.7112,-1.7127,-1.7122,-1.7125,-1.7131,-1.7129,-1.7135,-1.7132,-1.7145,-1.7146,-1.714,-1.7146,-1.7132,-1.7148,-1.7142,-1.7142,-1.7139,-1.7103,-1.7095,-1.7068,-1.7116,-1.7116,-1.7116,0,-1.7096,-1.7097,-1.7086,-1.7093,-1.7092,-1.7087,-1.7088,-1.7086,-1.709,-1.7094,-1.7095,-1.7104,-1.7098,-1.7112,-1.7102,-1.7112,-1.711,-1.7113,-1.7112,-1.7111,-1.7126,-1.71,-1.7061,-1.7056,-1.711,-1.7111,-1.7111,0,-1.7068,-1.7068,-1.706,-1.7062,-1.707,-1.7066,-1.7069,-1.7073,-1.7072,-1.7072,-1.7072,-1.7071,-1.707,-1.7069,-1.7078,-1.7088,-1.7066,-1.7082,-1.7068,-1.7068,-1.7062,-1.7062,-1.7021,-1.7063,-1.7063,-1.7063,-1.7063,0,-1.7042,-1.7034,-1.7048,-1.7043,-1.7034,-1.7046,-1.7036,-1.7041,-1.7044,-1.7039,-1.7052,-1.7047,-1.706,-1.7056,-1.7062,-1.7052,-1.7052,-1.7054,-1.7056,-1.7052,-1.7052,-1.7051,-1.7052,-1.7062,-1.7063,-1.7063,-1.7063,0,-1.701,-1.7019,-1.7011,-1.7019,-1.7021,-1.7014,-1.702,-1.7015,-1.7021,-1.7015,-1.7014,-1.7023,-1.7019,-1.7027,-1.7025,-1.7029,-1.7014,-1.7019,-1.7012,-1.7013,-1.6999,-1.7,-1.6954,-1.6948,-1.6996,-1.6995,-1.6995,0,-1.6991,-1.6986,-1.6992,-1.699,-1.6992,-1.6989,-1.6988,-1.6999,-1.6997,-1.7,-1.6994,-1.6991,-1.6989,-1.6981,-1.6987,-1.6984,-1.6988,-1.6972,-1.6988,-1.6984,-1.6986,-1.6985,-1.6984,-1.6969,-1.6968,-1.6968,-1.6967,0,-1.6958,-1.6962,-1.6961,-1.696,-1.6958,-1.6958,-1.6959,-1.6956,-1.6968,-1.6965,-1.696,-1.6959,-1.6955,-1.6951,-1.6949,-1.6951,-1.696,-1.6962,-1.6959,-1.6955,-1.695,-1.6951,-1.7002,-1.6963,-1.6964,-1.6964,-1.6964,-1.6964,-1.6931,-1.6926,-1.6929,-1.6926,-1.6928,-1.6927,-1.6923,-1.6928,-1.6924,-1.6922,-1.6929,-1.6923,-1.6924,-1.6923,-1.6924,-1.6918,-1.6925,-1.692,-1.6919,-1.6917,-1.6914,-1.6952,-1.6918,-1.6918,-1.6918,-1.6918,-1.6918,0,-1.6896,-1.6899,-1.6896,-1.6896,-1.6893,-1.6903,-1.6904,-1.69,-1.6895,-1.6896,-1.6893,-1.6887,-1.6883,-1.6887,-1.6884,-1.6878,-1.6882,-1.6876,-1.6876,-1.6876,-1.6909,-1.6911,-1.6873,-1.6873,-1.6873,-1.6873,-1.6873,-1.6873,-1.6878,-1.6869,-1.6873,-1.6864,-1.6866,-1.686,-1.686,-1.6859,-1.686,-1.6852,-1.6849,-1.6852,-1.6854,-1.685,-1.6846,-1.6847,-1.6844,-1.6837,-1.684,-1.687,-1.6874,-1.6878,-1.6881,-1.6837,-1.6837,-1.6807,-1.6807,-1.6807]}]]